Weather in Chernava

Russia / Ryazan Oblast     53°36′42″N   39°08′17″E
temp.,
°C
wind,
m/s
gust,
m/s
humid.,
%
clouds,
%
prec.,
mm/h
press.,
hPa
HPBL,
m
1 march, mon
mon100:00−4ne1295100 0.1 102039
03:00−4nne2393100 0.1 102294
06:00−5n2294100 0.0 102442
09:00−8n229676 0.0 102632
12:00−5w239239 0.0 1026212
15:00−3wsw469333 0.0 1025311
18:00−2w6109296 0.0 1024568
21:00−4wsw5129498 0.0 1022304
2 march, tue
tue200:00−2wsw61293100 0.0 1020506
03:00+1w71393100 0.0 1017617
06:00+1w71493100 0.0 1014663
09:00+1w71395100 0.0 1012646
12:00+1wnw613100100 0.2 1010582
15:00+1wnw511100100 0.3 1010599
18:000nw41090100 0.1 1009524
21:00−1nw4109196 0.3 1010332
3 march, wed
wed300:00−2nw5129093 0.1 1011479
03:00−3nw6139397 0.2 1012634
06:00−4nw7149197 0.1 1013743
09:00−5nw7148992 0.1 1015803
12:00−4nnw7138280 0.0 1016928
15:00−2nw6118668 0.0 1017985
18:00−2wnw61289100 0.1 1016710
21:00−2wnw51192100 0.1 1017603
4 march, thu
thu400:00−2w51193100 0.1 1016508
03:00−4w5119383 0.2 1014327
06:00−4wsw61292100 0.0 1012350
09:00−3wsw8159187 0.0 1009444
12:00+1wsw10178399 0.0 1006774
15:00+1wsw9177899 0.0 1004884
18:000wsw8178077 0.0 1001774
21:00+1w7149788 0.1 1001909
5 march, fri
fri500:00−1w61394100 0.1 1002602
03:00−4nw478997 0.3 1005189
06:00−7nnw359495 0.0 1008104
09:00−7nnw239579 0.0 101092
12:00−4nnw128874 0.0 1011244
15:00−3nnw118786 0.0 1012313
18:00−5ne1192100 0.0 101321
21:00−6ese229399 0.0 101424